weather.gov     
National Weather Service

Regional Weather Roundup
NWS Homepage
This page is being discontinued on March 12, 2014.
The same data is available at this site. Please update your bookmarks.
Thank you, and we apologize for the inconvenience.
Please send an email to SR-SRH.Webmaster@noaa.gov with any concerns.


Current Version
Previous Version:    01  02  03  04  05  06  07  08  09  10  11  12  13  14  15  16  17  18  19  20  21  22  23  24  25  26  
[Printable]
141
ASUS41 KBGM 260610
RWRBGM
RWRBGM
BINGHAMTON REGIONAL WEATHER ROUNDUP
NATIONAL WEATHER SERVICE BINGHAMTON NY
100 AM EST WED NOV 26 2014

Note: "fair" indicates few or no clouds below 12,000 feet with no
significant weather and/or obstructions to visibility.

* = Station(s) that does not report precipitation, such as rain,
snow, etc, also no thunder or fog.

!NYZ009-015>018-022>025-036-037-044>046-055>057-062-260700
...CENTRAL NEW YORK...

CITY           SKY/WX    TMP DP  RH WIND       PRES   REMARKS
BINGHAMTON     CLOUDY    33  27  78 N9        30.12F WCI  25
CORTLAND       CLOUDY    34  28  80 NW5       30.18F WCI  30
DANSVILLE      CLOUDY    34  24  67 N3        30.20S
ELMIRA         CLOUDY    31  26  82 CALM      30.15F
ITHACA         CLOUDY    33  27  79 N6        30.18F WCI  27
HAMILTON       CLOUDY    36  27  69 N6        30.18F WCI  31
MONTICELLO     MOCLDY    34  27  75 N6        30.14F WCI  29
NORWICH        CLEAR     30  27  86 CALM      30.18S
ONEONTA        MOCLDY    32  27  80 N6        30.13S WCI  26
PENN YAN       CLOUDY    34  24  67 NW9       30.20R WCI  27
ROME           CLOUDY    36  28  73 W7        30.22S WCI  30
SIDNEY         CLEAR     30  30 100 CALM      30.16F
SYRACUSE       CLOUDY    37  25  61 W7        30.21S WCI  32
$$

!PAZ038>040-043-044-047-048-072-260700
...NORTHEAST PENNSYLVANIA...

CITY           SKY/WX    TMP DP  RH WIND       PRES   REMARKS
HAZLETON       CLOUDY    37  28  70 CALM      30.17R
SCRANTON       CLOUDY    41  27  57 N6        30.15F
TOWANDA*       CLEAR     30  27  86 W5        30.19S WCI  25
$$
&&
KEY
WCI = WIND CHILL INDEX
VSB = VISIBILITY
HX  = HEAT INDEX
$$




U.S. Dept. of Commerce
NOAA National Weather Service
1325 East West Highway
Silver Spring, MD 20910
E-mail: w-nws.webmaster@noaa.gov
Page last modified: May 16, 2007
NATIONAL WEATHER SERVICE: for Safety, for Work, for Fun - FOR LIFE